OBJECT B, 62730

Orbit data source: Space-Track

You're viewing an Uncataloged Satellite

Recently launched and/or uncataloged satellites may have evolving metadata. Metadata may include but not limited to: Owner, Maufacturer, Bus, Motor, and Mission.

OBJECT B, 62730 is a satellite owned by Yunyao yuhang (CN) in SSO that was launched on Mon, 20 Jan 2025 UTC via a GUSHENXING 1 launch vehicle from the Jiuquan Satellite Launch Center, China (JSC). Unknown objects in Earth's orbit typically refer to objects detected orbiting the Earth but have not yet been identified or cataloged. These objects could be anything from previously untracked satellites, spent rocket stages, debris from satellite collisions, or even natural meteoroids temporarily captured by Earth's gravity.

Loading next visibility...
OBJECT B details
Identifier
62730, 2025-013B
Orbit
SSO
Last TLE update9 hours ago
Origin
Flag of CNYunyao yuhang (CN / PRC)
ManufacturerYunyao yuhang
MissionOperational spacecraft
Bus & MotorYY-1, Unknown motor
Mass~50 kg wet, ~50 kg dry
Launch date (UTC)
2025-01-20 (1 month ago)
Launch vehicle
GUSHENXING 1
Launch site
Jiuquan Satellite Launch Center, China (JSC)
Object typeUnknown
Shape & HBRUnknown
Radar Cross SectionMedium (>0.1 m² and <1 m²)

Expand to show TLE details & history

TLE from 9 hours ago
0 OBJECT B
1 62730U 25013B   25047.14065314  .00009940  00000-0  66940-3 0  9991
2 62730  97.6121 213.9771 0015436 224.8968 135.1012 15.06801701  4033
Epoch: 2025-02-16T03:22Z
Definitive object data (Epoch: 2025-02-16T03:22:32.431Z)
Latitude0.00001°
Longitude16.96399°
Altitude556.628 km
Speed7.579 km/s
True Right ascension14h 15m 54s
True Declination0° 00' 00"
Sunlit
Object was in full shadow at TLE epoch
Visualization TLE readout
Latitude54.65208°
Longitude-151.88476°
Altitude556.671 km
Speed7.588 km/s
Apparent Right ascension02h 49m 24s
Apparent Declination9° 56' 41"
Sunlit
Object is in daylight
Visualization observer readout
Local Sidereal Time14:40:17
Azimuth357.066° N
Elevation-40.094°
Doppler factor1
Orbital elements
Apogee altitude553.656 km
Perigee altitude532.29 km
Semi-major axis6,921.11 km
Eccentricity0.0015436
Inclination97.6121°
RAAN213.9771°
Arg. of periapsis224.8968°
True anomaly135.22588°
Mean anomaly135.1012°
Eccentric anomaly135.16356°
Mean motion3.76946 °/min
BSTAR0.0006694
Orbital period95.5 mins
Loading maneuver chart data...
Loading historical data...
Loading historical data...
Loading historical data...
Loading historical data...
Loading historical data...
Loading historical data...
Loading historical data...
Other satellites on launch #13 in the year 2025 (2025-01-20 UTC)

OBJECT B Visibility forecast

Observer location: undefined°, undefined

Span
Click to sort rows by Start time (UTC) header in descending order
Start Az.
Max El. time (UTC)
Max El. Az.
Max El.
End time (UTC)
End Az.
5 mins2025-02-16 23:04:51.120Z46.285° ENE2025-02-16 23:07:51.120Z101.264° ESE20.406°2025-02-16 23:09:51.120Z138.318° SSE
4 mins2025-02-17 00:40:51.120Z320.697° NNW2025-02-17 00:41:51.120Z298.199° NW22.407°2025-02-17 00:44:51.120Z239.829° WSW
6 mins2025-02-17 11:22:51.120Z190.331° SSW2025-02-17 11:25:51.120Z275.751° WNW36.7°2025-02-17 11:28:51.120Z333.947° NNW
|